GW4197 Weather Reports


time (UTC)temp
C
wind
direction
speed
KPH
gust
KPH
rain 1hr
cm
rain 24hr
cm
rain mn
cm
humidity
%
barometer
mb
20260507220531 11 124 4.8 22.5 0.00 0.00 0.00 94 1000.9
20260507220046 11 150 8.0 27.4 0.00 0.00 0.00 94 1001.0
20260507215532 11 122 11.3 27.4 0.00 0.00 0.00 94 1000.9
20260507215032 11 132 11.3 29.0 0.00 0.00 0.00 94 1001.0
20260507214554 12 114 11.3 29.0 0.00 0.00 0.00 94 1000.9
20260507214031 12 121 12.9 29.0 0.00 0.00 0.00 94 1000.8
20260507213531 12 93 11.3 24.1 0.00 0.00 0.00 94 1000.9
20260507213046 12 165 12.9 27.4 0.00 0.00 0.00 94 1001.0
20260507212532 12 141 14.5 27.4 0.00 0.00 0.00 94 1001.0
20260507212031 12 124 14.5 27.4 0.00 0.00 0.00 94 1000.9
20260507211549 12 195 12.9 22.5 0.00 0.00 0.00 94 1000.9
20260507211031 12 122 9.7 25.7 0.00 0.00 0.00 94 1000.9
20260507210532 12 116 14.5 29.0 0.00 0.00 0.00 94 1001.1
20260507210050 12 60 12.9 29.0 0.00 0.00 0.00 94 1001.0
20260507205533 12 127 12.9 24.1 0.00 0.00 0.00 94 1001.1
20260507205031 12 118 11.3 24.1 0.00 0.00 0.00 94 1001.1
20260507204545 12 114 11.3 25.7 0.00 0.00 0.00 94 1001.0
20260507204031 12 169 9.7 25.7 0.00 0.00 0.00 94 1000.8
20260507203533 12 128 9.7 25.7 0.00 0.00 0.00 94 1000.9
20260507203046 12 136 9.7 25.7 0.00 0.00 0.00 94 1000.8
20260507202531 12 109 11.3 25.7 0.00 0.00 0.00 95 1000.9
20260507202031 12 96 12.9 24.1 0.00 0.00 0.00 95 1001.0
20260507201547 12 198 9.7 24.1 0.00 0.00 0.00 95 1001.0
20260507201034 12 109 12.9 24.1 0.00 0.00 0.00 95 1000.3
20260507200531 12 143 12.9 25.7 0.00 0.00 0.00 95 1000.3
20260507200054 12 127 11.3 25.7 0.00 0.00 0.00 95 1000.3
20260507195532 12 129 11.3 25.7 0.00 0.00 0.00 95 1000.5
20260507195034 12 150 12.9 24.1 0.00 0.00 0.00 95 1000.8
20260507194545 12 103 9.7 22.5 0.00 0.00 0.00 95 1000.5
20260507194030 12 118 11.3 22.5 0.00 0.00 0.00 95 1000.8
20260507193531 12 128 9.7 22.5 0.00 0.00 0.00 95 1001.1
20260507193051 12 122 11.3 22.5 0.00 0.00 0.00 94 1001.2
20260507192531 12 127 6.4 20.9 0.00 0.00 0.00 95 1001.4
20260507192031 12 125 11.3 22.5 0.00 0.00 0.00 95 1001.7
20260507191547 12 161 11.3 22.5 0.00 0.00 0.00 95 1002.0
20260507191031 12 167 12.9 29.0 0.00 0.00 0.00 95 1002.4
20260507190531 12 152 9.7 29.0 0.00 0.00 0.00 95 1002.6
20260507190051 12 148 12.9 29.0 0.00 0.00 0.00 95 1002.7
20260507185531 12 140 11.3 25.7 0.00 0.00 0.00 95 1002.8
20260507185033 12 131 8.0 22.5 0.00 0.00 0.00 95 1002.9
20260507184543 12 151 9.7 22.5 0.00 0.00 0.00 95 1003.0
20260507184030 12 127 12.9 22.5 0.00 0.00 0.00 95 1002.9
20260507183531 12 139 8.0 20.9 0.00 0.00 0.00 95 1002.8
20260507183042 12 129 9.7 24.1 0.00 0.00 0.00 95 1002.9
20260507182532 12 136 12.9 25.7 0.00 0.00 0.00 95 1003.3
20260507182032 12 172 9.7 25.7 0.00 0.00 0.00 94 1003.4
20260507181547 12 129 9.7 25.7 0.00 0.00 0.00 94 1003.3
20260507181032 12 216 12.9 22.5 0.00 0.00 0.00 94 1003.4
20260507180535 12 136 8.0 20.9 0.00 0.00 0.00 94 1003.3
20260507180048 12 126 9.7 20.9 0.00 0.00 0.00 94 1003.5
20260507175533 12 142 9.7 22.5 0.00 0.00 0.00 94 1003.6
20260507175031 12 182 8.0 22.5 0.00 0.00 0.00 94 1003.8
20260507174554 12 149 9.7 27.4 0.00 0.00 0.00 94 1003.9
20260507174032 12 126 12.9 27.4 0.00 0.00 0.00 93 1004.0
20260507173531 12 210 11.3 25.7 0.00 0.00 0.00 93 1004.1
20260507173044 12 162 11.3 25.7 0.00 0.00 0.00 93 1004.2
20260507172531 13 149 14.5 25.7 0.00 0.00 0.00 92 1004.1
20260507172031 13 146 9.7 29.0 0.00 0.00 0.00 92 1003.8
20260507171549 13 198 14.5 40.2 0.00 0.00 0.00 91 1003.5
20260507171031 13 150 14.5 40.2 0.00 0.00 0.00 91 1003.7
20260507170533 13 136 14.5 33.8 0.00 0.00 0.00 89 1003.6
20260507170050 14 132 17.7 33.8 0.00 0.00 0.00 88 1003.3
20260507165532 14 191 14.5 40.2 0.00 0.00 0.00 87 1003.4
20260507165031 15 131 16.1 40.2 0.00 0.00 0.00 86 1003.2
20260507164547 15 166 22.5 40.2 0.00 0.00 0.00 85 1003.1
20260507164032 15 134 19.3 49.9 0.00 0.00 0.00 84 1003.1
20260507163532 15 159 22.5 49.9 0.00 0.00 0.00 84 1003.0
20260507163045 15 161 19.3 46.7 0.00 0.00 0.00 84 1002.9
20260507162531 15 150 22.5 45.1 0.00 0.00 0.00 83 1003.1
20260507162033 15 125 19.3 43.5 0.00 0.00 0.00 83 1003.2
20260507161554 15 148 22.5 45.1 0.00 0.00 0.00 83 1003.3
20260507161033 15 169 20.9 45.1 0.00 0.00 0.00 83 1003.1
20260507160532 15 159 19.3 43.5 0.00 0.00 0.00 82 1003.4
20260507160042 16 81 22.5 43.5 0.00 0.00 0.00 82 1003.4
20260507155530 16 139 24.1 43.5 0.00 0.00 0.00 82 1003.5
20260507155031 16 159 20.9 41.8 0.00 0.00 0.00 81 1003.7
20260507154544 16 152 17.7 41.8 0.00 0.00 0.00 82 1003.9
20260507154031 16 124 17.7 48.3 0.00 0.00 0.00 82 1004.0
20260507153531 16 122 20.9 48.3 0.00 0.00 0.00 81 1003.9
20260507153107 16 172 24.1 45.1 0.00 0.00 0.00 81 1004.0
20260507152531 16 131 17.7 37.0 0.00 0.00 0.00 81 1004.1
20260507152032 16 160 16.1 46.7 0.00 0.00 0.00 81 1004.1
20260507151551 16 129 22.5 46.7 0.00 0.00 0.00 80 1004.4
20260507151031 16 180 22.5 46.7 0.00 0.00 0.00 81 1004.6
20260507150531 16 162 22.5 46.7 0.00 0.00 0.00 80 1004.4
20260507150050 16 135 20.9 49.9 0.00 0.00 0.00 80 1004.7
20260507145532 16 116 25.7 49.9 0.00 0.00 0.00 80 1004.7
20260507145031 16 179 24.1 49.9 0.00 0.00 0.00 80 1004.9
20260507144541 16 133 24.1 46.7 0.00 0.00 0.00 79 1005.1
20260507144031 16 181 19.3 38.6 0.00 0.00 0.00 79 1005.3
20260507143531 16 121 19.3 38.6 0.00 0.00 0.00 80 1005.0
20260507143052 16 124 17.7 49.9 0.00 0.00 0.00 80 1005.2
20260507142534 16 145 20.9 49.9 0.00 0.00 0.00 80 1005.4
20260507142031 16 113 22.5 45.1 0.00 0.00 0.00 81 1005.3
20260507141547 16 141 19.3 43.5 0.00 0.00 0.00 81 1005.5
20260507141031 16 123 19.3 38.6 0.00 0.00 0.00 82 1005.9
20260507140533 16 134 19.3 45.1 0.00 0.00 0.00 82 1005.8
20260507140054 16 127 24.1 46.7 0.00 0.00 0.00 83 1005.6
20260507135532 16 155 17.7 46.7 0.00 0.00 0.00 84 1005.6
20260507135033 15 214 17.7 41.8 0.00 0.00 0.00 84 1005.9
20260507134543 15 149 16.1 45.1 0.00 0.00 0.00 84 1005.8
20260507134031 15 128 24.1 46.7 0.00 0.00 0.00 84 1005.9
20260507133533 15 172 19.3 46.7 0.00 0.00 0.00 84 1005.8
20260507133047 15 134 20.9 43.5 0.00 0.00 0.00 83 1005.7
20260507132533 15 127 22.5 43.5 0.00 0.00 0.00 83 1005.6
20260507132031 15 158 20.9 48.3 0.00 0.00 0.00 83 1005.7
20260507131546 15 171 20.9 48.3 0.00 0.00 0.00 83 1005.7
20260507131033 15 119 16.1 45.1 0.00 0.00 0.00 83 1006.1
20260507130532 15 120 16.1 37.0 0.00 0.00 0.00 83 1006.5
20260507130059 15 155 16.1 43.5 0.00 0.00 0.00 83 1006.3
20260507125535 15 186 14.5 43.5 0.00 0.00 0.00 83 1006.2
20260507125032 15 98 16.1 43.5 0.00 0.00 0.00 83 1006.7
20260507124559 15 126 19.3 53.1 0.00 0.00 0.00 84 1006.3
20260507124031 15 136 22.5 53.1 0.00 0.00 0.00 84 1006.3
20260507123531 15 218 16.1 37.0 0.00 0.00 0.00 85 1006.3
20260507123102 15 105 20.9 41.8 0.00 0.00 0.00 86 1006.5
20260507122530 15 158 19.3 41.8 0.00 0.00 0.00 87 1006.7
20260507122033 15 145 19.3 41.8 0.00 0.00 0.00 88 1006.9
20260507121555 15 188 19.3 38.6 0.00 0.00 0.00 89 1006.9
20260507121031 14 62 16.1 38.6 0.00 0.00 0.00 89 1006.7
20260507120538 14 99 16.1 38.6 0.00 0.00 0.00 89 1006.6
20260507120046 14 165 19.3 41.8 0.00 0.00 0.00 90 1006.6
20260507115531 14 242 17.7 41.8 0.00 0.00 0.00 91 1006.4
20260507115034 13 127 20.9 41.8 0.00 0.00 0.00 91 1006.3
20260507114545 13 190 16.1 38.6 0.00 0.00 0.00 92 1006.4
20260507114032 13 111 17.7 38.6 0.00 0.00 0.00 92 1006.7
20260507113532 13 153 19.3 51.5 0.00 0.00 0.00 92 1007.1
20260507113046 13 163 20.9 51.5 0.00 0.00 0.00 93 1007.1
20260507112531 13 139 22.5 51.5 0.00 0.00 0.00 92 1007.2
20260507112031 13 136 17.7 40.2 0.00 0.00 0.00 92 1007.2
20260507111549 13 161 17.7 38.6 0.00 0.00 0.00 92 1007.6
20260507111030 13 186 17.7 38.6 0.00 0.00 0.00 92 1008.0
20260507110533 13 101 17.7 35.4 0.00 0.00 0.00 91 1008.1
20260507110047 13 158 19.3 35.4 0.00 0.00 0.00 91 1008.2
20260507105531 13 139 14.5 33.8 0.00 0.00 0.00 91 1008.3
20260507105031 13 169 12.9 33.8 0.00 0.00 0.00 91 1008.5
20260507104553 13 147 11.3 30.6 0.00 0.00 0.00 91 1008.5
20260507104031 13 181 16.1 30.6 0.00 0.00 0.00 91 1008.3
20260507103531 13 118 12.9 27.4 0.00 0.00 0.00 91 1008.2
20260507103043 13 169 12.9 32.2 0.00 0.00 0.00 91 1008.0
20260507102531 13 113 16.1 32.2 0.00 0.00 0.00 92 1008.0
20260507102031 13 136 14.5 30.6 0.00 0.00 0.00 92 1008.5
20260507101550 13 128 12.9 30.6 0.00 0.00 0.00 92 1008.3
20260507101031 12 144 12.9 32.2 0.00 0.00 0.00 92 1008.4
20260507100530 12 108 12.9 32.2 0.00 0.00 0.00 92 1008.5
20260507100054 12 143 11.3 30.6 0.00 0.00 0.00 93 1008.6
20260507095532 12 152 12.9 27.4 0.00 0.00 0.00 93 1008.8
20260507095031 12 103 11.3 22.5 0.00 0.00 0.00 93 1009.0
20260507094547 12 267 11.3 22.5 0.00 0.00 0.00 93 1009.3
20260507094030 12 131 9.7 22.5 0.00 0.00 0.00 93 1009.4
20260507093533 12 120 11.3 27.4 0.00 0.00 0.00 93 1009.4
20260507093047 12 124 12.9 27.4 0.00 0.00 0.00 93 1009.4
20260507092535 12 70 11.3 30.6 0.00 0.00 0.00 93 1009.0
20260507092036 12 129 12.9 30.6 0.00 0.00 0.00 93 1009.2
20260507091544 12 147 12.9 27.4 0.00 0.00 0.00 92 1009.5
20260507091033 12 109 11.3 29.0 0.00 0.00 0.00 92 1009.1
20260507090532 12 135 17.7 29.0 0.00 0.00 0.00 93 1009.5
20260507090050 12 146 12.9 27.4 0.00 0.00 0.00 93 1009.7
20260507085533 12 141 9.7 24.1 0.00 0.00 0.00 93 1009.5
20260507085033 12 141 9.7 24.1 0.00 0.00 0.00 93 1010.0
20260507084546 12 136 11.3 24.1 0.00 0.00 0.00 93 1010.1
20260507084032 12 102 9.7 24.1 0.00 0.00 0.00 93 1010.1
20260507083532 12 125 8.0 19.3 0.00 0.00 0.00 93 1010.0
20260507083054 11 127 8.0 20.9 0.00 0.00 0.00 92 1009.8
20260507082533 11 117 9.7 20.9 0.00 0.00 0.00 92 1010.2
20260507082032 11 121 9.7 20.9 0.00 0.00 0.00 92 1010.1
20260507081556 11 110 9.7 29.0 0.00 0.00 0.00 92 1009.9
20260507081033 11 62 11.3 29.0 0.00 0.00 0.00 92 1010.3
20260507080532 11 148 11.3 32.2 0.00 0.00 0.00 92 1010.2
20260507080043 11 137 11.3 32.2 0.00 0.00 0.00 92 1009.8
20260507075535 11 147 19.3 32.2 0.00 0.00 0.00 91 1009.5
20260507075033 11 200 14.5 29.0 0.00 0.00 0.00 91 1009.6
20260507074541 12 125 12.9 29.0 0.00 0.00 0.00 90 1009.9
20260507074032 12 144 12.9 29.0 0.00 0.00 0.00 90 1010.2
20260507073532 12 122 12.9 29.0 0.00 0.00 0.00 90 1010.1
20260507073054 12 125 11.3 24.1 0.00 0.00 0.00 90 1010.3
20260507072536 12 120 12.9 27.4 0.00 0.00 0.00 90 1010.6
20260507072036 12 108 16.1 30.6 0.00 0.00 0.00 90 1010.8
20260507071539 12 114 14.5 30.6 0.00 0.00 0.00 90 1011.1
20260507071032 12 130 12.9 24.1 0.00 0.00 0.00 89 1010.9
20260507070532 12 168 9.7 27.4 0.00 0.00 0.00 89 1011.2
20260507070043 12 174 11.3 30.6 0.00 0.00 0.00 89 1011.4
20260507065532 12 129 14.5 30.6 0.00 0.00 0.00 89 1011.4
20260507065033 12 199 12.9 30.6 0.00 0.00 0.00 88 1011.5
20260507064545 12 145 16.1 35.4 0.00 0.00 0.00 88 1011.1
20260507064033 12 171 14.5 35.4 0.00 0.00 0.00 88 1011.3
20260507063534 12 135 17.7 32.2 0.00 0.00 0.00 88 1011.2
20260507063047 12 110 12.9 32.2 0.00 0.00 0.00 87 1011.2
20260507062532 12 119 12.9 37.0 0.00 0.00 0.00 87 1011.5
20260507062033 12 147 16.1 37.0 0.00 0.00 0.00 86 1011.6
20260507061540 12 167 16.1 37.0 0.00 0.00 0.00 86 1011.5
20260507061033 12 135 11.3 35.4 0.00 0.00 0.00 85 1011.3
20260507060532 12 140 12.9 35.4 0.00 0.00 0.00 85 1011.5
20260507060048 12 155 12.9 32.2 0.00 0.00 0.00 84 1011.4
20260507055532 12 83 16.1 33.8 0.00 0.00 0.00 84 1011.2
20260507055033 13 139 16.1 33.8 0.00 0.00 0.00 84 1011.6
20260507054545 12 140 16.1 32.2 0.00 0.00 0.00 84 1011.6
20260507054036 12 234 12.9 32.2 0.00 0.00 0.00 83 1011.8
20260507053532 12 138 17.7 27.4 0.00 0.00 0.00 83 1011.8
20260507053045 12 173 12.9 27.4 0.00 0.00 0.00 82 1011.9
20260507052532 12 127 12.9 25.7 0.00 0.00 0.00 82 1012.1
20260507052032 12 131 12.9 33.8 0.00 0.00 0.00 82 1012.4
20260507051545 12 113 17.7 33.8 0.00 0.00 0.00 81 1012.5
20260507051032 12 146 12.9 27.4 0.00 0.00 0.00 81 1012.9
20260507050532 12 113 12.9 27.4 0.00 0.00 0.00 81 1013.0
20260507050049 12 113 11.3 25.7 0.00 0.00 0.00 81 1013.1
20260507045534 12 117 12.9 25.7 0.00 0.00 0.00 81 1013.2
20260507045034 13 139 12.9 33.8 0.00 0.00 0.00 81 1013.4
20260507044543 13 172 12.9 33.8 0.00 0.00 0.00 80 1013.5
20260507044032 13 157 11.3 27.4 0.00 0.00 0.00 80 1013.6
20260507043532 13 84 16.1 27.4 0.00 0.00 0.00 80 1013.6
20260507043049 13 131 16.1 32.2 0.00 0.00 0.00 80 1013.7
20260507042533 13 176 16.1 32.2 0.00 0.00 0.00 80 1013.9
20260507042034 13 139 14.5 27.4 0.00 0.00 0.00 81 1014.0
20260507041548 13 205 12.9 27.4 0.00 0.00 0.00 81 1014.0
20260507041033 13 150 16.1 29.0 0.00 0.00 0.00 80 1014.1
20260507040532 13 142 14.5 29.0 0.00 0.00 0.00 80 1014.2
20260507040043 13 103 14.5 30.6 0.00 0.00 0.00 80 1014.4
20260507035532 13 101 14.5 30.6 0.00 0.00 0.00 80 1014.5
20260507035036 13 136 12.9 27.4 0.00 0.00 0.00 80 1014.7
20260507034541 13 156 16.1 27.4 0.00 0.00 0.00 80 1015.1
20260507034032 13 127 14.5 27.4 0.00 0.00 0.00 80 1015.1
20260507033532 13 139 12.9 27.4 0.00 0.00 0.00 79 1015.1
20260507033047 13 167 14.5 27.4 0.00 0.00 0.00 79 1015.1
20260507032533 13 153 14.5 27.4 0.00 0.00 0.00 80 1015.3
20260507032032 13 150 14.5 24.1 0.00 0.00 0.00 80 1015.3
20260507031544 13 121 12.9 27.4 0.00 0.00 0.00 80 1015.4
20260507031035 13 118 11.3 27.4 0.00 0.00 0.00 80 1015.7
20260507030533 13 148 14.5 27.4 0.00 0.00 0.00 80 1015.7
20260507030047 13 162 11.3 25.7 0.00 0.00 0.00 80 1015.8
20260507025533 13 148 11.3 25.7 0.00 0.00 0.00 80 1015.9
20260507025034 13 203 11.3 25.7 0.00 0.00 0.00 80 1015.9
20260507024554 13 152 9.7 22.5 0.00 0.00 0.00 81 1016.0
20260507024034 13 217 12.9 20.9 0.00 0.00 0.00 81 1016.0
20260507023541 13 46 9.7 20.9 0.00 0.00 0.00 81 1016.2
20260507023042 13 150 11.3 20.9 0.00 0.00 0.00 81 1016.2
20260507022532 13 128 11.3 24.1 0.00 0.00 0.00 81 1016.3
20260507022032 13 139 9.7 24.1 0.00 0.00 0.00 81 1016.3
20260507021544 13 26 8.0 22.5 0.00 0.00 0.00 81 1016.3
20260507021033 13 148 11.3 22.5 0.00 0.00 0.00 81 1016.5
20260507020532 13 145 6.4 16.1 0.00 0.00 0.00 81 1016.5
20260507020103 13 144 8.0 19.3 0.00 0.00 0.00 81 1016.5
20260507015532 13 133 4.8 19.3 0.00 0.00 0.00 81 1016.6
20260507015033 13 146 9.7 19.3 0.00 0.00 0.00 81 1016.5
20260507014602 13 106 9.7 19.3 0.00 0.00 0.00 81 1016.5
20260507014032 13 108 8.0 19.3 0.00 0.00 0.00 81 1016.6
20260507013532 13 103 8.0 19.3 0.00 0.00 0.00 81 1016.5
20260507013048 13 147 6.4 19.3 0.00 0.00 0.00 81 1016.6
20260507012535 13 148 6.4 16.1 0.00 0.00 0.00 80 1016.7
20260507012033 13 118 4.8 14.5 0.00 0.00 0.00 80 1016.7
20260507011540 13 161 6.4 17.7 0.00 0.00 0.00 80 1016.7
20260507011033 13 135 6.4 17.7 0.00 0.00 0.00 80 1016.8
20260507010533 13 165 8.0 17.7 0.00 0.00 0.00 80 1016.8
20260507010043 13 141 8.0 19.3 0.00 0.00 0.00 79 1016.8
20260507005532 13 113 6.4 19.3 0.00 0.00 0.00 79 1016.8
20260507005033 13 131 6.4 17.7 0.00 0.00 0.00 79 1017.0
20260507004545 13 157 11.3 17.7 0.00 0.00 0.00 79 1017.0
20260507004032 13 124 8.0 17.7 0.00 0.00 0.00 79 1017.0
20260507003532 13 127 6.4 17.7 0.00 0.00 0.00 78 1017.1
20260507003044 14 146 9.7 17.7 0.00 0.00 0.00 78 1017.1
20260507002532 14 158 6.4 16.1 0.00 0.00 0.00 78 1017.1
20260507002033 14 150 6.4 19.3 0.00 0.00 0.00 77 1017.0
20260507001539 14 132 9.7 20.9 0.00 0.00 0.00 77 1017.0
20260507001033 14 284 9.7 20.9 0.00 0.00 0.00 77 1017.0
20260507000532 15 150 6.4 20.9 0.00 0.00 0.00 77 1017.0
20260507000046 15 143 11.3 20.9 0.00 0.00 0.00 76 1016.9
20260506235534 15 134 8.0 24.1 0.00 0.00 0.00 76 1017.0
20260506235035 15 154 12.9 24.1 0.00 0.00 0.00 76 1017.0
20260506234550 15 189 9.7 24.1 0.00 0.00 0.00 75 1016.8
20260506234032 15 151 6.4 19.3 0.00 0.00 0.00 75 1016.8
20260506233532 15 159 4.8 22.5 0.00 0.00 0.00 74 1016.7
20260506233040 15 166 6.4 22.5 0.00 0.00 0.00 74 1016.6
20260506232532 16 204 11.3 22.5 0.00 0.00 0.00 73 1016.4
20260506232034 16 186 9.7 20.9 0.00 0.00 0.00 73 1016.3
20260506231556 16 151 8.0 20.9 0.00 0.00 0.00 72 1016.3
20260506231032 16 151 8.0 19.3 0.00 0.00 0.00 71 1016.3
20260506230532 16 119 8.0 20.9 0.00 0.00 0.00 71 1016.2
20260506230055 16 161 8.0 20.9 0.00 0.00 0.00 70 1016.1
20260506225535 17 165 8.0 20.9 0.00 0.00 0.00 69 1016.0
20260506225032 17 122 4.8 25.7 0.00 0.00 0.00 68 1015.9
20260506224544 17 139 9.7 30.6 0.00 0.00 0.00 67 1015.8
20260506224034 17 145 11.3 30.6 0.00 0.00 0.00 65 1015.7
20260506223534 17 136 11.3 29.0 0.00 0.00 0.00 65 1015.7
20260506223054 17 252 12.9 30.6 0.00 0.00 0.00 64 1015.7
20260506222532 18 186 14.5 30.6 0.00 0.00 0.00 63 1015.6
20260506222031 18 174 11.3 29.0 0.00 0.00 0.00 63 1015.7
20260506221545 18 143 11.3 32.2 0.00 0.00 0.00 62 1015.7
20260506221036 18 214 9.7 35.4 0.00 0.00 0.00 62 1015.6